User: anonymous   Login
Location: Unspecified
(0.0000°N, 0.0000°E)
Time: 04:17:54
(UTC+00:00)
Language:

GEOEYE 1 - Orbit

View from above orbital plane
View from above orbital plane
View from above satellite
View from above satellite

Ground track
Ground track

The orbit data is extracted from the following two-line orbital elements,

1 33331U 08042A   18054.19506373  .00000081  00000-0  24377-4 0  9995
2 33331  98.0929 130.3076 0009234 189.4939 170.6063 14.64237748505833
Epoch (UTC): 23 February 2018 04:40:53
Eccentricity: 0.0009234
inclination: 98.0929°
perigee height: 673 km
apogee height: 686 km
right ascension of ascending node: 130.3076°
argument of perigee: 189.4939°
revolutions per day: 14.64237748
mean anomaly at epoch: 170.6063°
orbit number at epoch: 50583

The dashed part of the orbit path shows where the satellite is in the earth's shadow,  

DLR